Preview of NWS' New Version of Forecast
This preview is not operational and should not be used for support decisions.

Regional Weather Roundup (RWR)

Issued by National Weather Service (NWS)

                            
000
ASUS43 KMKX 182210
RWRWI 

WISCONSIN REGIONAL WEATHER ROUNDUP
NATIONAL WEATHER SERVICE MILWAUKEE/SULLIVAN WI
400 PM CST MON FEB 18 2019

NOTE: "FAIR" INDICATES FEW OR NO CLOUDS BELOW 12,000 FEET WITH NO
SIGNIFICANT WEATHER AND/OR OBSTRUCTIONS TO VISIBILITY.

WIZ001-002-006>008-014>016-023>028-182300-
NORTHWEST WISCONSIN
  
CITY           SKY/WX    TMP DP  RH WIND       PRES   REMARKS
SUPERIOR ARPT  FAIR      19  -1  43 S5        30.46S WCI  12          
ASHLAND        FAIR      16   2  54 N6        30.46R WCI   7          
HAYWARD        FAIR      20   1  43 VRB3      30.41S                  
SIREN          FAIR      19   3  49 W5        30.45R WCI  12          
CUMBERLAND     FAIR      18   1  49 CALM      30.42R                  
RICE LAKE      FAIR      19   5  54 SW5       30.45R WCI  12          
CHETEK         FAIR      19   5  53 N5        30.45R WCI  12          
LADYSMITH      FAIR      20   0  41 NW3       30.42S                  
EAU CLAIRE     FAIR      18   4  54 NW5       30.45R WCI  11          
MENOMONIE      FAIR      16  -1  47 W6        30.46S WCI   8          
NEW RICHMOND   FAIR      19   5  55 N3        30.46S                  
OSCEOLA        FAIR      19   8  60 W6        30.50R WCI  11          
$$
 
WIZ003>005-009-010-017-018-182300-
NORTH CENTRAL WISCONSIN
  
CITY           SKY/WX    TMP DP  RH WIND       PRES   REMARKS
MANITOWISH WTR NOT AVBL                                               
ARBOR VITAE    FAIR      19   4  51 CALM      30.35S                  
WOODRUFF       FAIR      19   4  51 CALM      30.35S                  
RHINELANDER    FAIR      21   2  43 CALM      30.35S                  
EAGLE RIVER    FAIR      16   2  55 NW5       30.34F WCI   9          
LAND O LAKES   FAIR      17   4  54 W3        30.36S                  
PHILLIPS       FAIR      18   2  49 CALM      30.37R                  
TOMAHAWK       FAIR      21   1  41 NW5       30.37R WCI  14          
MEDFORD        FAIR      19   2  46 W5        30.37R WCI  12          
MERRILL        FAIR      23   1  39 N3        30.38R                  
$$
 
WIZ029-030-035-036-043>047-182300-
CENTRAL WISCONSIN
  
CITY           SKY/WX    TMP DP  RH WIND       PRES   REMARKS
WAUSAU         FAIR      20   2  45 W3        30.37R                  
MOSINEE        SUNNY     19   5  53 W5        30.40R WCI  13          
MARSHFIELD     FAIR      18   1  47 W6        30.39R WCI  10          
STEVENS POINT  FAIR      19   0  42 W7        30.42R WCI  10          
WAUPACA        FAIR      27   7  43 W7        30.43R WCI  19          
WAUTOMA        FAIR      23   9  55 NW7       30.44  WCI  15          
WISC RAPIDS    FAIR      21   3  45 NW12      30.43R WCI   9          
CAMP DOUGLAS   FAIR      23   9  55 W6        30.42S WCI  15          
$$
 
WIZ011>013-019>022-031-037>040-048>050-182300-
NORTHEAST WISCONSIN
  
CITY           SKY/WX    TMP DP  RH WIND       PRES   REMARKS
ANTIGO         FAIR      16   4  58 SE3       30.36R                  
SHAWANO        FAIR      32   7  34 SW3       30.40R                  
OCONTO         FAIR      21   8  57 SE7       30.43R WCI  12          
STURGEON BAY   FAIR      23   8  52 NW3       30.41R                  
GREEN BAY      FAIR      26   7  44 CALM      30.43R                  
MANITOWOC      FAIR      23  10  57 NW7       30.45R WCI  15          
APPLETON       MOSUNNY   21   3  45 CALM      30.41R                  
CLINTONVILLE   FAIR      23   7  49 S7        30.41R WCI  15          
OSHKOSH        FAIR      20   9  62 CALM      30.43R                  
$$
 
WIZ032>034-041-042-053>061-182300-
SOUTHWEST WISCONSIN
  
CITY           SKY/WX    TMP DP  RH WIND       PRES   REMARKS
LA CROSSE      FAIR      22   9  57 N8        30.46S WCI  12          
SPARTA         FAIR      24  10  53 CALM      30.45S                  
VIROQUA        FAIR      23  13  64 CALM      30.41S                  
BOSCOBEL       FAIR      25  10  53 NW3       30.45R                  
PRAIRIE DU CHI FAIR      24  11  57 W6        30.46R WCI  17          
PLATTEVILLE    FAIR      24  14  66 CALM      30.43S                  
$$

WIZ056-057-062-063-064-067-068-182300-
SOUTH CENTRAL WISCONSIN
  
CITY           SKY/WX    TMP DP  RH WIND       PRES   REMARKS
REEDSBURG      PTSUNNY   24  10  55 W6        30.43S WCI  17          
BARABOO/DELLS  CLOUDY    25   8  48 W6        30.42R WCI  18          
LONE ROCK      FAIR      24  11  57 S3        30.44S                  
MINERAL POINT  FAIR      27  16  63 W5        30.41S WCI  21          
MADISON        FAIR      24  10  55 CALM      30.43S                  
MIDDLETON      FAIR      25  11  54 CALM      30.43S                  
WATERTOWN      FAIR      22  10  59 N6        30.44R WCI  15          
MONROE         FAIR      24  10  56 MISG      30.42R                  
JANESVILLE     MOSUNNY   25  12  58 NW12      30.44R WCI  14          
$$
 
WIZ051-052-058>065-066-070>072-182300-
SOUTHEAST WISCONSIN
  
CITY           SKY/WX    TMP DP  RH WIND       PRES   REMARKS
MILWAUKEE      PTSUNNY   26  14  60 NE9       30.42R WCI  17          
WAUKESHA       SUNNY     21   9  58 W8        30.43R WCI  12          
MILWAUKEE/TIMM MOSUNNY   27   9  46 N6        30.43R WCI  20          
RACINE         CLOUDY    25  15  66 N8        30.44R WCI  16          
KENOSHA        FAIR      27  13  55 NW7       30.42R WCI  19          
FOND DU LAC    FAIR      22   8  55 CALM      30.44R                  
SHEBOYGAN      FAIR      21   8  57 NE7       30.43R WCI  12          
WEST BEND      FAIR      23   9  54 NW9       30.42R WCI  13          
JUNEAU         FAIR      21   9  61 CALM      30.44S                  
$$

LSZ147-162-182300-
LAKE SUPERIOR
  
STATION/POSITION TIME  TEMP    WIND        PRES    WAVE
                       AIR SEA DIR/SP/G            HT/PER
                 (UTC) (F)     (DEG/KT/KT) (MB)    (FT/S)
DEVILS ISLAND    2200   14     230/  4/  5 1033.4R
SAXON HARBOR     2140   17      40/  4/  5 1031.5S
$$
 
LMZ867-665-643>646-182300-
LAKE MICHIGAN
  
STATION/POSITION TIME  TEMP    WIND        PRES    WAVE
                       AIR SEA DIR/SP/G            HT/PER
                 (UTC) (F)     (DEG/KT/KT) (MB)    (FT/S)
CHAMBERS ISLAND  2140   18      30/  7/  9 1029.1S
NORTHPORT PIER   2140   19     350/  5/  6 1029.8R
KEWAUNEE LAKESHO 2136   23     330/  3/  6 1029.4R
SHEBOYGAN LAKESH 2200   22     310/  6/  8 1031.8R
PORT WASHINGTON  2140   25      30/  6/ 10 1031.5R
MILWAUKEE LAKESH 2150   25      40/ 10/ 12   N/A
KENOSHA   LAKESH 2200   26      30/ 10/ 11 1030.1
$$

TC  - TEMPERATURE IN CELSIUS
VSB - VISIBILITY IN STATUTE MILES
WCI - WIND CHILL INDEX
HX  - HEAT INDEX